This is the latest recevied weather packets stored in our database for station/object KB9PMA-1. If no packets are shown the sender has not sent any weather packets the latest 10 day(s).
| Time | Temp. | Humidity | Pressure | Rain* | Wind** | Luminosity | Snow |
|---|---|---|---|---|---|---|---|
| 1778158671 | 7.22° C | 73% | 1016.8 hPa | 0 mm | - | - | - |
| 1778158371 | 7.22° C | 74% | 1016.7 hPa | 0 mm | - | - | - |
| 1778158072 | 7.22° C | 75% | 1016.7 hPa | 0 mm | - | - | - |
| 1778157771 | 6.67° C | 76% | 1016.7 hPa | 0 mm | - | - | - |
| 1778157472 | 6.67° C | 77% | 1016.7 hPa | 0 mm | - | - | - |
| 1778157171 | 6.67° C | 76% | 1016.6 hPa | 0 mm | - | - | - |
| 1778156872 | 6.11° C | 78% | 1016.6 hPa | 0 mm | - | - | - |
| 1778156572 | 6.11° C | 82% | 1016.7 hPa | 0 mm | - | - | - |
| 1778156271 | 5.56° C | 80% | 1016.7 hPa | 0 mm | - | - | - |
| 1778155972 | 5° C | 85% | 1016.7 hPa | 0 mm | - | - | - |
| 1778155672 | 5° C | 87% | 1016.7 hPa | 0 mm | - | - | - |
| 1778155372 | 4.44° C | 90% | 1016.7 hPa | 0 mm | - | - | - |
| 1778155072 | 4.44° C | 91% | 1016.9 hPa | 0 mm | - | - | - |
| 1778154772 | 4.44° C | 91% | 1016.9 hPa | 0 mm | - | - | - |
| 1778154472 | 4.44° C | 91% | 1016.9 hPa | 0 mm | - | - | - |
| 1778154172 | 3.89° C | 91% | 1016.9 hPa | 0 mm | - | - | - |
| 1778153872 | 3.89° C | 91% | 1016.8 hPa | 0 mm | - | - | - |
| 1778153572 | 3.89° C | 92% | 1016.7 hPa | 0 mm | - | - | - |
| 1778153272 | 3.89° C | 92% | 1016.7 hPa | 0 mm | - | - | - |
| 1778152972 | 3.89° C | 93% | 1016.5 hPa | 0 mm | - | - | - |
| 1778152672 | 3.89° C | 93% | 1016.5 hPa | 0 mm | - | - | - |
| 1778152372 | 3.33° C | 93% | 1016.5 hPa | 0 mm | - | - | - |
| 1778152072 | 3.33° C | 93% | 1016.5 hPa | 0 mm | - | - | - |
| 1778151772 | 3.33° C | 93% | 1016.5 hPa | 0 mm | - | - | - |
| 1778151472 | 3.33° C | 93% | 1016.4 hPa | 0 mm | - | - | - |
* Rain latest hour (hover to see other rain measurements)
** Current wind speed in m/s (hover to see current wind gust speed)